STARLINK P

Last updated on Wed Apr 23 2025 00:02:06 GMT+0000 (Coordinated Universal Time)

1 63582U 25076P 25112.75002315 -.00817298 21377-3 -21153-2 0 9992 2 63582 43.0020 346.1378 0002034 255.5181 344.6666 15.94149059 2423

Satellite not in orbit